Terminal Aerodrome Forecast
Issued by NWS Louisville, KY

Home | Current Version | Previous Version | Text Only | Print | Product List | Glossary On
Versions: 1 2 3 4 5 6 7 8 9 10 11 12 13
000
FTUS43 KLMK 302000 AAA
TAFSDF
TAF AMD
KSDF 302026Z 3020/0124 32011KT P6SM VCSH BKN050
     FM302030 36020G30KT 6SM -SHRA BKN050
     FM302200 35015KT P6SM BKN050
     FM302300 34007KT P6SM SCT050=

USA.gov is the U.S. government's official web portal to all federal, state and local government web resources and services.